Time,TemperatureF,DewpointF,PressureIn,WindDirection,WindDirectionDegrees,WindSpeedMPH,WindSpeedGustMPH,Humidity,HourlyPrecipIn,Conditions,Clouds,dailyrainin,SoftwareType,DateUTC
2018-01-16 00:10:00,60.3,43.0,30.21,WSW,258,1.0,6.0,54,0.00,,,0.00,weatherlink.com 1.10,2018-01-15 21:10:00,
2018-01-16 00:16:00,60.5,44.0,30.21,WNW,290,3.0,6.0,55,0.00,,,0.00,weatherlink.com 1.10,2018-01-15 21:16:00,
2018-01-16 00:31:00,60.8,44.0,30.21,West,274,3.0,8.0,54,0.00,,,0.00,weatherlink.com 1.10,2018-01-15 21:31:00,
2018-01-16 00:46:00,60.8,44.0,30.21,West,260,4.0,7.0,54,0.00,,,0.00,weatherlink.com 1.10,2018-01-15 21:46:00,
2018-01-16 01:01:00,60.6,43.0,30.21,West,278,5.0,6.0,53,0.00,,,0.00,weatherlink.com 1.10,2018-01-15 22:01:00,
2018-01-16 01:16:00,60.5,44.0,30.21,WNW,284,2.0,6.0,54,0.00,,,0.00,weatherlink.com 1.10,2018-01-15 22:16:00,
2018-01-16 01:31:00,60.4,43.0,30.21,WSW,254,8.0,8.0,54,0.00,,,0.00,weatherlink.com 1.10,2018-01-15 22:31:00,
2018-01-16 01:46:00,60.4,44.0,30.21,West,266,2.0,7.0,55,0.00,,,0.00,weatherlink.com 1.10,2018-01-15 22:46:00,
2018-01-16 02:01:00,59.7,43.0,30.21,North,359,4.0,6.0,55,0.00,,,0.00,weatherlink.com 1.10,2018-01-15 23:01:00,
2018-01-16 02:16:00,59.5,44.0,30.21,WNW,285,5.0,7.0,56,0.00,,,0.00,weatherlink.com 1.10,2018-01-15 23:16:00,
2018-01-16 02:31:00,59.6,44.0,30.21,North,359,5.0,8.0,56,0.00,,,0.00,weatherlink.com 1.10,2018-01-15 23:31:00,
2018-01-16 02:46:00,59.4,44.0,30.21,West,262,1.0,8.0,57,0.00,,,0.00,weatherlink.com 1.10,2018-01-15 23:46:00,
2018-01-16 03:01:00,58.8,43.0,30.21,West,274,5.0,8.0,56,0.00,,,0.00,weatherlink.com 1.10,2018-01-16 00:01:00,
2018-01-16 03:16:00,58.5,43.0,30.21,North,359,2.0,8.0,57,0.00,,,0.00,weatherlink.com 1.10,2018-01-16 00:16:00,
2018-01-16 03:31:00,58.1,43.0,30.21,West,267,4.0,6.0,58,0.00,,,0.00,weatherlink.com 1.10,2018-01-16 00:31:00,
2018-01-16 03:46:00,57.7,43.0,30.21,WNW,293,4.0,7.0,59,0.00,,,0.00,weatherlink.com 1.10,2018-01-16 00:46:00,
2018-01-16 04:01:00,57.5,44.0,30.21,NW,313,5.0,8.0,60,0.00,,,0.00,weatherlink.com 1.10,2018-01-16 01:01:00,
2018-01-16 04:16:00,57.5,44.0,30.21,North,359,4.0,8.0,61,0.00,,,0.00,weatherlink.com 1.10,2018-01-16 01:16:00,
2018-01-16 04:31:00,57.1,44.0,30.21,SW,234,2.0,7.0,61,0.00,,,0.00,weatherlink.com 1.10,2018-01-16 01:31:00,
2018-01-16 04:47:00,56.8,44.0,30.21,North,359,3.0,5.0,62,0.00,,,0.00,weatherlink.com 1.10,2018-01-16 01:47:00,
2018-01-16 05:17:00,56.4,44.0,30.23,North,359,2.0,9.0,64,0.00,,,0.00,weatherlink.com 1.10,2018-01-16 02:17:00,
2018-01-16 05:32:00,55.9,43.0,30.23,WNW,282,4.0,9.0,62,0.00,,,0.00,weatherlink.com 1.10,2018-01-16 02:32:00,
2018-01-16 05:47:00,55.5,43.0,30.23,West,272,8.0,8.0,63,0.00,,,0.00,weatherlink.com 1.10,2018-01-16 02:47:00,
2018-01-16 06:02:00,55.4,43.0,30.24,West,280,7.0,9.0,63,0.00,,,0.00,weatherlink.com 1.10,2018-01-16 03:02:00,
2018-01-16 06:17:00,55.5,43.0,30.25,WSW,248,6.0,8.0,63,0.00,,,0.00,weatherlink.com 1.10,2018-01-16 03:17:00,
2018-01-16 06:32:00,55.4,43.0,30.25,SW,226,3.0,8.0,64,0.00,,,0.00,weatherlink.com 1.10,2018-01-16 03:32:00,
2018-01-16 06:47:00,55.1,43.0,30.26,WSW,257,1.0,4.0,65,0.00,,,0.00,weatherlink.com 1.10,2018-01-16 03:47:00,
2018-01-16 07:02:00,55.1,43.0,30.26,NW,316,2.0,6.0,65,0.00,,,0.00,weatherlink.com 1.10,2018-01-16 04:02:00,
2018-01-16 07:17:00,55.3,44.0,30.27,SW,234,6.0,7.0,66,0.00,,,0.00,weatherlink.com 1.10,2018-01-16 04:17:00,
2018-01-16 07:32:00,55.4,44.0,30.27,WSW,246,1.0,5.0,66,0.00,,,0.00,weatherlink.com 1.10,2018-01-16 04:32:00,
2018-01-16 07:47:00,56.0,44.0,30.27,SW,233,2.0,5.0,65,0.00,,,0.00,weatherlink.com 1.10,2018-01-16 04:47:00,
2018-01-16 08:02:00,56.8,44.0,30.28,WSW,240,2.0,4.0,63,0.00,,,0.00,weatherlink.com 1.10,2018-01-16 05:02:00,
2018-01-16 08:17:00,57.3,45.0,30.28,WSW,245,3.0,5.0,64,0.00,,,0.00,weatherlink.com 1.10,2018-01-16 05:17:00,
2018-01-16 08:32:00,57.7,45.0,30.29,North,359,1.0,5.0,63,0.00,,,0.00,weatherlink.com 1.10,2018-01-16 05:32:00,
2018-01-16 08:47:00,58.3,46.0,30.29,SW,233,1.0,6.0,63,0.00,,,0.00,weatherlink.com 1.10,2018-01-16 05:47:00,
2018-01-16 09:02:00,58.3,45.0,30.29,North,359,1.0,6.0,62,0.00,,,0.00,weatherlink.com 1.10,2018-01-16 06:02:00,
2018-01-16 09:17:00,58.6,45.0,30.29,North,359,3.0,8.0,61,0.00,,,0.00,weatherlink.com 1.10,2018-01-16 06:17:00,
2018-01-16 09:32:00,58.4,45.0,30.29,North,359,5.0,7.0,62,0.00,,,0.00,weatherlink.com 1.10,2018-01-16 06:32:00,
2018-01-16 09:47:00,59.0,45.0,30.29,West,280,2.0,7.0,61,0.00,,,0.00,weatherlink.com 1.10,2018-01-16 06:47:00,
2018-01-16 10:02:00,59.1,45.0,30.29,WNW,290,1.0,7.0,60,0.00,,,0.00,weatherlink.com 1.10,2018-01-16 07:02:00,
2018-01-16 10:17:00,60.9,46.0,30.29,WSW,238,3.0,7.0,58,0.00,,,0.00,weatherlink.com 1.10,2018-01-16 07:17:00,
2018-01-16 10:32:00,61.0,45.0,30.29,WSW,253,7.0,8.0,56,0.00,,,0.00,weatherlink.com 1.10,2018-01-16 07:32:00,
2018-01-16 10:47:00,62.0,45.0,30.28,North,359,2.0,6.0,54,0.00,,,0.00,weatherlink.com 1.10,2018-01-16 07:47:00,
2018-01-16 11:02:00,63.1,45.0,30.27,WSW,239,1.0,6.0,52,0.00,,,0.00,weatherlink.com 1.10,2018-01-16 08:02:00,
2018-01-16 11:17:00,63.4,45.0,30.26,West,266,2.0,5.0,52,0.00,,,0.00,weatherlink.com 1.10,2018-01-16 08:17:00,
2018-01-16 11:32:00,63.9,46.0,30.25,WSW,245,1.0,6.0,53,0.00,,,0.00,weatherlink.com 1.10,2018-01-16 08:32:00,
2018-01-16 11:47:00,64.4,46.0,30.24,WSW,251,7.0,8.0,51,0.00,,,0.00,weatherlink.com 1.10,2018-01-16 08:47:00,
2018-01-16 12:02:00,64.6,46.0,30.23,West,281,5.0,7.0,51,0.00,,,0.00,weatherlink.com 1.10,2018-01-16 09:02:00,
2018-01-16 12:17:00,65.7,46.0,30.22,NNW,333,3.0,8.0,50,0.00,,,0.00,weatherlink.com 1.10,2018-01-16 09:17:00,
2018-01-16 12:32:00,65.8,45.0,30.21,West,271,2.0,7.0,48,0.00,,,0.00,weatherlink.com 1.10,2018-01-16 09:32:00,
2018-01-16 12:47:00,66.4,46.0,30.20,WNW,291,2.0,7.0,48,0.00,,,0.00,weatherlink.com 1.10,2018-01-16 09:47:00,
2018-01-16 13:02:00,65.9,45.0,30.20,West,268,4.0,8.0,48,0.00,,,0.00,weatherlink.com 1.10,2018-01-16 10:02:00,
2018-01-16 13:17:00,65.7,44.0,30.20,North,359,5.0,8.0,46,0.00,,,0.00,weatherlink.com 1.10,2018-01-16 10:17:00,
2018-01-16 13:32:00,65.7,45.0,30.19,NW,320,6.0,8.0,47,0.00,,,0.00,weatherlink.com 1.10,2018-01-16 10:32:00,
2018-01-16 13:47:00,66.0,44.0,30.19,WNW,282,2.0,8.0,45,0.00,,,0.00,weatherlink.com 1.10,2018-01-16 10:47:00,
2018-01-16 14:02:00,66.1,44.0,30.19,West,271,5.0,7.0,45,0.00,,,0.00,weatherlink.com 1.10,2018-01-16 11:02:00,
2018-01-16 14:17:00,66.2,43.0,30.18,North,359,2.0,8.0,44,0.00,,,0.00,weatherlink.com 1.10,2018-01-16 11:17:00,
2018-01-16 14:32:00,66.0,43.0,30.18,WNW,300,7.0,7.0,43,0.00,,,0.00,weatherlink.com 1.10,2018-01-16 11:32:00,
2018-01-16 14:48:00,66.1,42.0,30.18,WNW,295,3.0,9.0,42,0.00,,,0.00,weatherlink.com 1.10,2018-01-16 11:48:00,
2018-01-16 15:03:00,66.2,43.0,30.18,North,359,5.0,8.0,43,0.00,,,0.00,weatherlink.com 1.10,2018-01-16 12:03:00,
2018-01-16 15:18:00,66.1,43.0,30.17,North,359,4.0,8.0,43,0.00,,,0.00,weatherlink.com 1.10,2018-01-16 12:18:00,
2018-01-16 15:33:00,66.1,43.0,30.17,NW,325,5.0,8.0,43,0.00,,,0.00,weatherlink.com 1.10,2018-01-16 12:33:00,
2018-01-16 15:48:00,66.0,43.0,30.17,West,264,1.0,8.0,44,0.00,,,0.00,weatherlink.com 1.10,2018-01-16 12:48:00,
2018-01-16 16:03:00,66.1,43.0,30.17,WSW,255,6.0,8.0,43,0.00,,,0.00,weatherlink.com 1.10,2018-01-16 13:03:00,
2018-01-16 16:18:00,65.8,43.0,30.17,WNW,291,7.0,8.0,44,0.00,,,0.00,weatherlink.com 1.10,2018-01-16 13:18:00,
2018-01-16 16:33:00,65.8,43.0,30.17,North,359,5.0,9.0,44,0.00,,,0.00,weatherlink.com 1.10,2018-01-16 13:33:00,
2018-01-16 16:48:00,65.5,43.0,30.17,NW,326,3.0,8.0,45,0.00,,,0.00,weatherlink.com 1.10,2018-01-16 13:48:00,
2018-01-16 17:03:00,65.4,43.0,30.17,WNW,294,4.0,7.0,45,0.00,,,0.00,weatherlink.com 1.10,2018-01-16 14:03:00,
2018-01-16 17:18:00,65.0,43.0,30.16,WNW,298,4.0,9.0,45,0.00,,,0.00,weatherlink.com 1.10,2018-01-16 14:18:00,
2018-01-16 17:33:00,64.9,43.0,30.16,West,265,3.0,7.0,45,0.00,,,0.00,weatherlink.com 1.10,2018-01-16 14:33:00,
2018-01-16 17:48:00,64.8,43.0,30.17,WNW,285,7.0,8.0,45,0.00,,,0.00,weatherlink.com 1.10,2018-01-16 14:48:00,
2018-01-16 18:03:00,64.6,43.0,30.17,West,267,0.0,8.0,45,0.00,,,0.00,weatherlink.com 1.10,2018-01-16 15:03:00,
2018-01-16 18:18:00,64.3,42.0,30.18,WSW,258,4.0,8.0,45,0.00,,,0.00,weatherlink.com 1.10,2018-01-16 15:18:00,
2018-01-16 18:33:00,64.1,42.0,30.18,West,262,5.0,8.0,45,0.00,,,0.00,weatherlink.com 1.10,2018-01-16 15:33:00,
2018-01-16 18:48:00,63.9,43.0,30.18,West,261,4.0,8.0,46,0.00,,,0.00,weatherlink.com 1.10,2018-01-16 15:48:00,